Location: Gouy
(50.0008°N, 3.2556°E)
Time: 05:51:44
(UTC+00:00)

Cosmos 2151 Rocket - Pass Details

Date: 20 August 2024
Orbit: 615 x 637 km, 82.5° (Epoch: 07 September)

Event Time Altitude Azimuth Distance (km) Brightness Sun altitude
Rises 03:37:48 0° 162° (SSE) 2,899 6.8 -10.4°
Reaches altitude 10° 03:40:11 10° 152° (SSE) 2,002 6.1 -10.1°
Maximum altitude 03:44:07 32° 90° (E) 1,091 5.5 -9.5°
Drops below altitude 10° 03:48:06 10° 28° (NNE) 2,029 7.2 -9.0°
Sets 03:50:31 0° 18° (NNE) 2,946 7.9 -8.7°
